Location: Eexterzandvoort
(53.0303°N, 6.7884°E)
Time: 16:20:51
(UTC+00:00)

Cosmos 2112 Rocket - Pass Details

Date: 19 May 2025
Orbit: 753 x 782 km, 74.0° (Epoch: 17 June)

Event Time Altitude Azimuth Distance (km) Brightness Sun altitude
Exits shadow 23:41:15 28° 166° (SSE) 1,416 4.8 -16.9°
Maximum altitude 23:43:42 49° 108° (ESE) 984 4.4 -16.9°
Drops below altitude 10° 23:48:43 10° 34° (NE) 2,307 7.4 -16.9°
Sets 23:51:09 0° 29° (NNE) 3,233 8.5 -16.8°
